SCP
0 0 0 0 0 0 0 0 0 0 0 0 0 0 0 0 0 0 0 0 0 0 0 0 0 0 0 0 0 0 0 0 0 0 0 0 0 0 0 0 0 0 0
0 0 0 0 0 0 0 0 0 0 0 0 0 0 0 0 0 0 0 0 0 0 0 0 0 0 0 0 0 0 0 0 0 0 0 0 0 0 0 0 0 0 0
0 0 0 0 0 0 0 0 0 0 0 0 0 0 0 0 0 0 0 0 0 0 0 0 0 0 0 0 0 0 0 0 0 0 0 0 0 0 0 0 0 0 0
0 0 0 0 0 0 0 0 0 0 0 0 0 0 0 0 0 0 0 0 0 0 0 0 0 0 0 0 0 0 0 0 0 0 0 0 0 0 0 0 0 0 0
0 0 0 0 0 0 0 0 0 0 0 0 0 0 0 0 0 0 0 0 0 0 0 0 0 0 0 0 0 0 0 0 0 0 0 0 0 0 0 0 0 0 0
0 0 0 0 0 0 0 0 0 0 0 0 0 0 0 0 0 0 0 0 0 0 0 0 0 0 0 0 0 0 0 0 0 0 0 0 0 0 0 0 0 0 0
0 0 0 0 0 0 0 0 0 0 0 0 0 0 0 0 0 0 0 0 0 0 0 0 0 0 0 0 0 0 0 0 0 0 0 0 0 0 0 0 0 0 0
0 0 0 0 0 0 0 0 0 0 0 0 0 0 0 0 0 0 0 0 0 0 0 0 0 0 0 0 0 0 0 0 0 0 0 0 0 0 0 0 0 0 0
0 0 0 0 0 0 0 0 0 0 0 0 0 0 0 0 0 0 0 0 0 0 0 0 0 0 0 0 0 0 0 0 0 0 0 0 0 0 0 0 0 0 0
0 0 0 0 0 0 0 0 0 0 0 0 0 0 0 0 0 0 0 0 0 0 0 0 0 0 0 0 0 0 0 0 0 0 0 0 0 0 0 0 0 0 0
0 0 0 0 0 0 0 0 0 0 0 0 0 0 0 0 0 0 0 0 0 0 0 0 0 0 0 0 0 0 0 0 0 0 0 0 0 0 0 0 0 0 0
0 0 0 0 0 0 0 0 0 0 0 0 0 0 0 0 0 0 0 0 0 0 0 0 0 0 0 0 0 0 0 0 0 0 0 0 0 0 0 0 0 0 1
0 0 0 0 0 0 0 0 0 0 0 0 0 0 0 0 0 0 0 0 0 0 0 0 0 0 0 0 0 0 0 0 0 0 0 0 0 0 0 0 0 0 0
0 0 0 0 0 0 0 0 0 0 0 0 0 0 0 0 0 0 0 0 0 0 0 0 0 0 0 0 0 0 0 0 0 0 0 0 0 0 0 0 0 0 0
0 0 0 0 0 0 0 0 0 0 0 0 0 0 0 0 0 0 0 0 0 0 0 0 0 0 0 0 0 0 0 0 0 0 0 0 0 0 0 0 0 0 0
0 0 0 0 0 0 0 0 0 0 0 0 0 0 0 0 0 0 0 0 0 0 0 0 0 0 0 0 0 0 0 0 0 0 0 0 0 0 0 0 0 0 0
0 0 0 0 0 0 0 0 0 0 0 0 0 0 0 0 0 0 0 0 0 0 0 0 0 0 0 0 0 0 0 0 0 0 0 0 0 0 0 0 0 0 0
0 0 0 0 0 0 0 0 0 0 0 0 0 0 0 0 0 0 0 0 0 0 0 0 0 0 0 0 0 0 0 0 0 0 0 0 0 0 0 0 0 0 0
0 0 0 0 0 0 0 0 0 0 0 0 0 0 0 0 0 0 0 0 0 0 0 0 0 0 0 0 0 0 0 0 0 0 0 0 0 0 0 0 0 0 0
0 0 0 0 0 0 0 0 0 0 0 0 0 0 0 0 0 0 0 0 0 0 0 0 0 0 0 0 0 0 0 0 0 0 0 0 0 0 0 0 0 0 0
0 0 0 0 0 0 0 0 0 0 0 0 0 0 0 0 0 0 0 0 0 0 0 0 0 0 0 0 0 0 0 0 0 0 0 0 0 0 0 0 0 0 0
0 0 0 0 0 0 0 0 0 0 0 0 0 0 0 0 0 0 0 0 0 0 0 0 0 0 0 0 0 0 0 0 0 0 0 0 0 0 0 0 0 0 0
0 0 0 0 0 0 0 0 0 0 0 0 0 0 0 0 0 0 0 0 0 0 0 0 0 0 0 0 0 0 0 0 0 0 0 0 0 0 0 0 0 0 0
0 0 0 0 0 0 0 0 0 0 0 0 0 0 0 0 0 0 0 0 0 0 0 0 0 0 0 0 0 0 0 0 0 0 0 0 0 0 0 0 0 0 0
0 0 0 0 0 0 0 0 0 0 0 0 0 0 0 0 0 0 0 0 0 0 0 0 0 0 0 0 0 0 0 0 0 0 0 0 0 0 0 0 0 0 0
0 0 0 0 0 0 0 0 0 0 0 0 0 0 0 0 0 0 0 0 0 0 0 0 0 0 0 0 0 0 0 0 0 0 0 0 0 0 0 0 0 0 0
Wind_Speed
4 3 3 2 3 2 3 3 2 3 3 3 3 4 5 5 5 4 4 11 13 14 15 16 17 17 17 17 16 16 15 15 15 16 16 16 16 16 16 16 16 16 15
4 4 4 3 3 3 3 3 3 3 3 3 4 4 5 5 5 5 4 6 12 14 15 16 17 17 17 17 17 16 16 16 16 16 16 16 16 16 17 17 17 18 18
5 4 3 3 3 3 3 2 2 2 2 2 4 4 4 5 5 5 5 4 5 10 13 15 15 15 16 16 16 16 16 16 16 16 16 16 17 17 17 18 18 19 19
4 4 3 3 2 2 2 2 1 1 2 2 3 3 3 4 5 5 4 4 3 3 7 12 12 13 13 14 15 15 16 16 16 16 16 16 17 17 18 18 19 19 20
3 3 3 2 2 2 1 1 1 1 2 2 3 3 4 4 5 4 4 4 3 3 3 6 9 11 12 14 14 15 16 16 17 17 17 17 17 18 18 19 19 20 20
3 3 2 2 2 2 1 1 1 1 1 2 3 4 4 4 3 3 4 3 3 3 2 3 3 5 11 14 15 16 17 17 18 18 18 18 18 19 19 19 20 20 21
3 3 2 2 2 1 1 1 1 0 1 1 2 4 4 3 3 3 2 2 3 3 3 3 3 3 5 13 16 18 18 19 19 19 19 19 20 20 20 21 21 21 21
3 2 3 2 2 1 1 1 1 1 1 1 1 2 4 6 4 3 3 3 3 3 3 4 4 5 4 4 10 18 19 19 20 20 20 20 20 21 21 22 22 22 22
3 3 3 3 2 2 1 1 1 1 0 1 0 1 0 3 4 4 4 3 3 3 4 5 6 6 6 5 6 11 18 19 20 21 21 21 21 21 22 22 23 23 23
3 3 3 3 3 2 2 1 1 1 2 1 1 1 3 3 3 5 4 3 4 4 5 6 6 7 7 5 9 16 19 20 21 21 21 22 22 22 23 23 23 24 24
3 3 3 3 3 2 1 1 1 1 1 2 2 1 2 2 4 5 7 5 4 4 5 6 6 6 7 6 6 11 19 20 21 22 22 23 23 24 24 24 24 24 24
2 3 3 3 2 1 1 0 1 1 1 2 2 2 3 3 3 4 6 6 6 4 5 6 6 6 6 6 8 17 20 21 22 23 23 23 24 24 25 25 25 25 25
1 1 2 1 1 1 0 1 1 1 2 2 3 3 3 4 3 3 4 6 6 4 4 4 4 4 6 5 6 18 19 23 23 24 24 24 24 25 25 25 25 26 26
2 2 2 1 1 0 0 0 1 1 2 3 4 4 3 4 4 4 4 4 6 5 3 5 4 5 5 4 10 20 12 22 23 24 25 25 25 25 26 26 26 26 26
2 2 2 1 0 0 1 1 1 2 2 3 4 4 4 4 4 4 4 4 4 7 7 5 4 3 4 6 13 10 8 18 24 24 25 25 25 26 26 26 26 26 26
3 2 2 1 1 1 1 1 2 3 3 4 3 5 5 4 4 4 5 5 5 7 9 4 5 6 8 10 16 11 9 23 24 24 24 25 25 25 25 25 25 25 25
3 3 2 2 2 2 2 2 3 4 4 5 5 5 7 6 5 5 5 5 6 6 11 9 5 6 8 10 11 10 10 9 11 22 24 25 25 25 24 24 24 24 24
3 3 2 2 3 3 3 4 5 5 5 6 6 6 7 6 7 6 5 6 7 7 9 14 8 6 8 9 11 11 11 10 8 19 25 25 25 24 24 24 24 24 23
3 2 3 3 4 4 4 5 5 6 6 7 7 7 8 7 8 7 7 7 7 8 8 11 11 7 7 8 9 9 11 9 10 14 20 22 23 23 24 24 23 23 22
3 3 3 4 5 5 5 6 6 6 7 7 8 8 8 8 9 8 8 8 8 9 9 10 11 9 7 7 7 7 8 6 8 9 14 17 20 23 23 23 23 22 21
4 4 4 4 5 4 5 6 6 7 7 8 8 8 9 11 14 12 10 8 8 8 8 9 10 9 8 6 6 6 10 8 8 8 9 9 9 8 10 16 19 20 21
4 4 4 5 6 5 10 14 11 6 7 7 8 8 9 11 15 20 22 21 18 12 10 10 10 11 10 8 8 8 9 11 10 5 6 7 6 8 8 7 16 21 21
4 4 5 5 7 9 15 16 17 9 6 7 8 8 8 9 15 9 15 21 19 23 22 15 13 13 12 10 10 12 11 12 12 6 7 11 7 9 8 10 20 21 21
4 5 6 6 7 9 16 17 18 10 7 7 8 9 9 9 10 12 11 11 11 12 15 12 11 13 13 12 12 14 14 13 11 8 7 10 7 8 8 7 16 20 20
4 5 6 6 7 10 16 18 19 7 7 8 8 9 10 10 17 22 15 12 12 11 16 22 23 22 24 24 19 10 8 9 10 6 4 6 6 7 6 7 9 16 16
5 5 6 6 7 9 15 18 19 6 7 8 7 9 16 17 20 23 13 10 13 12 9 11 14 16 14 14 19 11 7 9 9 7 4 4 4 4 5 3 3 3 5
Wind_Direction
188 194 206 211 216 209 209 215 228 242 255 262 259 259 267 269 268 264 272 288 296 301 305 307 307 307 305 303 300 298 295 293 291 290 288 284 278 274 272 269 267 266 266
188 196 207 210 218 214 212 214 225 239 252 258 268 265 266 270 266 265 260 278 290 298 304 307 309 308 306 304 301 300 298 296 294 293 292 291 288 284 278 273 269 266 264
193 194 198 210 219 209 206 213 227 229 248 256 268 271 267 263 263 264 265 262 278 294 303 310 314 314 312 310 308 306 305 303 300 297 294 292 291 288 286 283 277 271 266
188 184 192 212 212 189 191 204 213 235 256 266 274 277 273 271 270 268 269 271 274 281 299 311 320 326 328 325 321 317 313 311 307 302 298 295 293 291 288 286 284 281 275
175 170 183 195 177 168 182 200 199 213 262 278 277 276 275 271 274 285 286 286 284 284 284 310 327 336 338 336 332 327 321 316 312 307 303 299 296 293 290 288 286 284 282
150 151 155 160 146 144 162 168 213 221 248 280 293 292 282 284 293 287 287 295 297 299 303 304 319 327 335 334 332 328 320 315 311 308 305 302 298 295 291 289 287 285 283
125 128 128 122 123 142 159 158 172 270 302 340 340 320 310 312 312 290 289 303 314 324 325 318 314 309 314 322 325 321 318 314 308 305 302 300 297 294 292 289 286 284 282
114 121 125 120 118 120 96 94 105 78 350 32 46 346 336 336 335 324 325 310 310 323 321 317 311 302 296 294 303 314 313 309 305 303 300 297 294 292 290 288 286 283 280
97 103 109 111 106 112 110 101 123 137 244 329 162 166 296 292 304 305 304 301 301 305 305 303 295 290 288 285 290 302 304 305 303 300 298 295 293 291 289 287 285 283 281
87 96 102 105 104 104 105 112 125 153 161 243 287 234 220 218 269 302 301 290 289 286 285 289 289 287 283 280 284 296 302 301 299 298 297 296 294 292 290 289 287 285 283
76 89 99 101 102 103 107 102 104 154 178 199 214 232 255 249 231 255 285 294 295 264 263 269 275 277 279 276 276 286 297 299 299 298 297 296 294 293 291 289 289 288 286
74 77 94 96 101 103 105 127 162 193 207 218 220 211 211 227 231 234 265 284 289 274 265 261 265 270 275 276 282 298 302 301 299 298 297 295 294 292 291 290 289 288 286
126 109 100 103 106 122 153 164 191 238 224 228 234 232 227 230 227 230 257 278 284 286 275 264 257 270 281 281 292 302 302 301 299 297 295 294 292 290 289 288 287 286 285
166 158 138 132 135 145 174 182 230 251 236 241 248 245 243 245 234 226 233 269 293 287 270 268 275 265 277 287 293 302 298 298 298 296 295 293 291 289 287 286 285 283 283
161 152 145 145 171 231 247 239 244 260 257 251 252 253 249 251 243 239 234 226 249 286 289 257 263 271 280 289 291 290 279 291 295 295 294 293 292 289 287 285 284 282 280
158 154 158 174 222 255 256 249 257 259 259 260 250 252 253 252 250 244 238 235 229 252 276 260 260 273 284 288 292 292 286 294 297 297 295 292 290 288 285 284 283 282 280
170 177 190 207 236 254 255 250 257 262 260 265 263 256 258 257 254 251 243 240 241 242 270 278 255 265 268 275 284 282 282 280 283 290 292 292 290 289 287 285 283 282 281
187 196 205 227 247 253 254 252 262 264 260 264 266 263 264 266 259 255 249 248 249 243 260 282 282 268 261 264 270 273 279 280 277 287 291 291 291 290 289 288 286 284 281
201 215 222 239 251 257 259 256 253 258 257 257 259 259 262 263 265 261 254 255 256 259 256 272 282 274 266 264 268 269 270 273 276 281 287 289 290 290 289 288 287 286 285
214 232 239 246 252 257 259 261 258 257 258 258 256 254 255 253 258 262 263 259 258 261 262 269 279 279 272 263 261 270 277 265 268 274 278 281 283 286 288 290 290 289 288
229 239 251 261 261 260 256 256 253 252 254 259 259 255 254 263 269 275 275 263 259 263 268 274 280 283 279 270 266 267 278 279 268 261 266 268 272 271 276 281 285 285 284
246 249 254 260 267 267 280 287 286 262 255 257 264 263 263 274 281 286 288 289 286 281 278 277 281 280 281 275 275 276 281 284 284 242 252 266 259 264 263 256 270 276 277
246 258 261 260 263 272 286 292 293 289 266 260 262 266 272 272 287 277 282 286 285 283 282 281 279 279 281 278 277 277 273 274 276 270 270 276 262 265 262 266 274 277 278
248 256 261 263 266 275 290 296 298 293 272 264 260 260 264 269 270 278 267 265 261 265 270 274 266 269 269 269 264 269 275 277 273 263 254 273 270 266 269 263 273 276 278
256 256 259 265 268 278 290 297 298 282 270 267 263 262 267 266 276 287 286 278 277 271 277 278 278 280 282 287 290 288 284 285 286 273 236 254 268 272 270 266 270 275 279
256 266 269 265 265 271 285 294 296 280 274 274 268 262 274 281 286 290 286 279 283 282 274 277 279 281 282 283 287 281 275 278 280 280 245 242 263 274 282 267 269 280 286